Air Resources Laboratory banner image
Air Resources Laboratory web site National Oceanic and Atmospheric Administration (NOAA)

ga roundup


Office: FFC

ASUS42 KFFC 200003
RWRGA
WEATHER ROUNDUP FOR GEORGIA
NATIONAL WEATHER SERVICE PEACHTREE CITY GA
700 PM EST MON FEB 19 2018

NOTE: "FAIR" INDICATES FEW OR NO CLOUDS BELOW 12,000 FEET WITH NO
SIGNIFICANT WEATHER AND/OR OBSTRUCTIONS TO VISIBILITY.

* = USE WITH CAUTION. THE STATIONS MARKED WITH AN ASTERISK MAY NOT
REPORT WEATHER SUCH AS PRECIPITATION, FOG, OR THUNDER AND ARE NOT
QUALITY CONTROLLED BY NWS.

THE REMARK "TC" DENOTES TEMPERATURE READING IN DEGREES CELSIUS.

GAZ001>058-200100-
NORTH GEORGIA

CITY           SKY/WX    TMP DP  RH WIND       PRES   REMARKS
ATLANTA        MOCLDY    66  62  87 E13       30.28R
6HR MIN TEMP:  66; 6HR MAX TEMP:  76;

ATHENS         CLOUDY    59  58  96 NE7       30.32R
6HR MIN TEMP:  58; 6HR MAX TEMP:  62;

CHAMBLEE       FOG       59  57  93 VRB3      30.30R VSB 1
6HR MIN TEMP:  59; 6HR MAX TEMP:  64;

PEACHTREE CITY MOCLDY    73  55  53 CALM      30.27R
6HR MIN TEMP:  73; 6HR MAX TEMP:  78;

ROME           FAIR      63  60  90 E5        30.24S
6HR MIN TEMP:  63; 6HR MAX TEMP:  71;

WEST ATLANTA   MOCLDY    63  61  93 NE9       30.28R
6HR MIN TEMP:  63; 6HR MAX TEMP:  77;

GAINESVILLE    FOG       55  55 100 E7        30.34R VSB 1/2
6HR MIN TEMP:  54; 6HR MAX TEMP:  56;

CARTERSVILLE   MOCLDY    60  59  96 E9        30.28R
6HR MIN TEMP:  60; 6HR MAX TEMP:  68;



CITY           SKY/WX    TMP DP  RH WIND       PRES   REMARKS
DALTON*        FAIR      63  59  88 S7        30.27R
LAWRENCEVILLE* FOG       57  56  96 NE6       30.32R VSB 3/4
MARIETTA       CLOUDY    59  57  94 E9        30.30R
KENNESAW*      CLOUDY    59  58  96 E9        30.29R FOG
CANTON*        CLOUDY    59  59 100 E7        30.31S
BLAIRSVILLE*   MOCLDY    59  55  84 SE7       30.32R
$$

GAZ059>098-102>109-200100-
CENTRAL GEORGIA

CITY           SKY/WX    TMP DP  RH WIND       PRES   REMARKS
AUGUSTA-BUSH   FAIR      67  60  78 E3        30.30R
6HR MIN TEMP:  66; 6HR MAX TEMP:  77;

AUGUSTA-DANIEL FAIR      72  61  68 NE5       30.32R
6HR MIN TEMP:  66; 6HR MAX TEMP:  75;

COLUMBUS       MOCLDY    75  56  51 S5        30.24R
6HR MIN TEMP:  72; 6HR MAX TEMP:  81;

MACON          FAIR      73  57  57 S3        30.28R
6HR MIN TEMP:  73; 6HR MAX TEMP:  80;

ROBINS AFB     FAIR      71  58  64 S3        30.27R


CITY           SKY/WX    TMP DP  RH WIND       PRES   REMARKS
LAGRANGE*      CLOUDY    71  62  72 CALM      30.25R
SYLVANIA*      FAIR      72  64  76 CALM      30.33R
MILLEDGEVILLE* FAIR      70  61  73 CALM      30.29R
$$

GAZ099>101-110>166-200100-
SOUTH GEORGIA

CITY           SKY/WX    TMP DP  RH WIND       PRES   REMARKS
SAVANNAH       FAIR      69  64  84 E8        30.34R
6HR MIN TEMP:  69; 6HR MAX TEMP:  82;

VALDOSTA       FAIR      74  58  57 CALM      30.26R
6HR MIN TEMP:  74; 6HR MAX TEMP:  82;

ALMA           FAIR      73  61  65 SE6       30.29R
6HR MIN TEMP:  73; 6HR MAX TEMP:  82;

ST SIMONS      FAIR      65  63  93 E5        30.32R
6HR MIN TEMP:  64; 6HR MAX TEMP:  74;

FT STEWART     FAIR      70  64  80 SE6       30.31R
ALBANY         FAIR      72  60  66 E5        30.27R
HUNTER AFB     FAIR      68  63  85 E6        30.31R
MOODY AFB      FAIR      73  61  65 E5        30.26R
BRUNSWICK      FAIR      66  63  88 E7        30.33S


CITY           SKY/WX    TMP DP  RH WIND       PRES   REMARKS
BAINBRIDGE*    FAIR      73  63  68 S5        30.25S
MOULTRIE*      FAIR      70  63  78 CALM      30.26S
VIDALIA*       MOCLDY    73  63  68 SE3       30.30R
WAYCROSS*      FAIR      74  59  60 SE13      30.30R
DOUGLAS*       FAIR      73  61  64 CALM      30.30R
$$


ASUS42 KFFC 200010
RWRGA
WEATHER ROUNDUP FOR GEORGIA
NATIONAL WEATHER SERVICE PEACHTREE CITY GA
700 PM EST MON FEB 19 2018

NOTE: "FAIR" INDICATES FEW OR NO CLOUDS BELOW 12,000 FEET WITH NO
SIGNIFICANT WEATHER AND/OR OBSTRUCTIONS TO VISIBILITY.

* = USE WITH CAUTION. THE STATIONS MARKED WITH AN ASTERISK MAY NOT
REPORT WEATHER SUCH AS PRECIPITATION, FOG, OR THUNDER AND ARE NOT
QUALITY CONTROLLED BY NWS.

THE REMARK "TC" DENOTES TEMPERATURE READING IN DEGREES CELSIUS.

GAZ001>058-200100-
NORTH GEORGIA

CITY           SKY/WX    TMP DP  RH WIND       PRES   REMARKS
ATLANTA        MOCLDY    66  62  87 E13       30.28R
6HR MIN TEMP:  66; 6HR MAX TEMP:  76;

ATHENS         CLOUDY    59  58  96 NE7       30.32R
6HR MIN TEMP:  58; 6HR MAX TEMP:  62;

CHAMBLEE       FOG       59  57  93 VRB3      30.30R VSB 1
6HR MIN TEMP:  59; 6HR MAX TEMP:  64;

PEACHTREE CITY MOCLDY    73  55  53 CALM      30.27R
6HR MIN TEMP:  73; 6HR MAX TEMP:  78;

ROME           FAIR      63  60  90 E5        30.24S
6HR MIN TEMP:  63; 6HR MAX TEMP:  71;

WEST ATLANTA   MOCLDY    63  61  93 NE9       30.28R
6HR MIN TEMP:  63; 6HR MAX TEMP:  77;

GAINESVILLE    FOG       55  55 100 E7        30.34R VSB 1/2
6HR MIN TEMP:  54; 6HR MAX TEMP:  56;

CARTERSVILLE   FAIR      60  59  96 VRB7      30.28R
6HR MIN TEMP:  60; 6HR MAX TEMP:  68;



CITY           SKY/WX    TMP DP  RH WIND       PRES   REMARKS
DALTON*        FAIR      63  59  88 S7        30.27R
LAWRENCEVILLE* FOG       57  56  96 NE6       30.32R VSB 3/4
MARIETTA       CLOUDY    59  57  94 E9        30.30R
KENNESAW*      CLOUDY    59  58  96 E9        30.29R FOG
CANTON*        CLOUDY    59  59 100 E7        30.31S
BLAIRSVILLE*   MOCLDY    59  55  84 SE7       30.32R
$$

GAZ059>098-102>109-200100-
CENTRAL GEORGIA

CITY           SKY/WX    TMP DP  RH WIND       PRES   REMARKS
AUGUSTA-BUSH   FAIR      67  60  78 E3        30.30R
6HR MIN TEMP:  66; 6HR MAX TEMP:  77;

AUGUSTA-DANIEL FAIR      72  61  68 NE5       30.32R
6HR MIN TEMP:  66; 6HR MAX TEMP:  75;

COLUMBUS       MOCLDY    75  56  51 S5        30.24R
6HR MIN TEMP:  72; 6HR MAX TEMP:  81;

MACON          FAIR      73  57  57 S3        30.28R
6HR MIN TEMP:  73; 6HR MAX TEMP:  80;

ROBINS AFB     FAIR      71  58  64 S3        30.27R


CITY           SKY/WX    TMP DP  RH WIND       PRES   REMARKS
LAGRANGE*      CLOUDY    71  62  72 CALM      30.25R
SYLVANIA*      FAIR      72  64  76 CALM      30.33R
MILLEDGEVILLE* FAIR      70  61  73 CALM      30.29R
$$

GAZ099>101-110>166-200100-
SOUTH GEORGIA

CITY           SKY/WX    TMP DP  RH WIND       PRES   REMARKS
SAVANNAH       FAIR      69  64  84 E8        30.34R
6HR MIN TEMP:  69; 6HR MAX TEMP:  82;

VALDOSTA       FAIR      74  58  57 CALM      30.26R
6HR MIN TEMP:  74; 6HR MAX TEMP:  82;

ALMA           FAIR      73  61  65 SE6       30.29R
6HR MIN TEMP:  73; 6HR MAX TEMP:  82;

ST SIMONS      FAIR      65  63  93 E5        30.32R
6HR MIN TEMP:  64; 6HR MAX TEMP:  74;

FT STEWART     FAIR      70  64  80 SE6       30.31R
ALBANY         FAIR      72  60  66 E5        30.27R
HUNTER AFB     FAIR      68  63  85 E6        30.31R
MOODY AFB      FAIR      73  61  65 E5        30.26R
BRUNSWICK      FAIR      66  63  88 E7        30.33S


CITY           SKY/WX    TMP DP  RH WIND       PRES   REMARKS
BAINBRIDGE*    FAIR      73  63  68 S5        30.25S
MOULTRIE*      FAIR      70  63  78 CALM      30.26S
VIDALIA*       MOCLDY    73  63  68 SE3       30.30R
WAYCROSS*      FAIR      74  59  60 SE13      30.30R
DOUGLAS*       FAIR      73  61  64 CALM      30.30R
$$




Office: CHS ASUS42 KCHS 192312 RWRCHS Regional Weather Roundup National Weather Service Charleston SC 600 PM EST MON FEB 19 2018 NOTE: "fair" indicates few or no clouds below 12,000 feet with no significant weather and/or obstructions to visibility. Not all stations are quality controlled. Use data with caution, especially dewpoint observations. SCZ027-030-031-034>040-042>050-200000- ...Southeast South Carolina... CITY SKY/WX TMP DP RH WIND PRES REMARKS N Charleston FAIR 72 65 78 SE8 30.34R Waterfront Prk NOT AVBL Mount Pleasant FAIR 70 66 88 E5 30.35R Johns Island CLOUDY 68 64 88 CALM 30.35R Pinopolis N/A 68 63 83 VRB2 30.25R Moncks Corner FAIR 72 63 73 S5 30.34R Summerville FAIR 73 63 68 CALM 30.34R Beaufort MCAS FAIR 74 67 78 S5 30.33R Beaufort Arpt FAIR 70 64 83 CALM 30.33R Hilton Head Is CLEAR 66 63 88 NE6 30.35R Walterboro FAIR 73 63 68 SE7 30.34R Allendale FAIR 75 64 69 CALM 30.30S ...Southern Midlands and Pee Dee... CITY SKY/WX TMP DP RH WIND PRES REMARKS Georgetown CLOUDY 63 63 100 SE5 30.37R Kingstree CLOUDY 66 63 88 CALM 30.36R Orangeburg MOCLDY 71 60 68 E5 30.33R Barnwell N/A 73 64 73 CALM 30.31S Aiken MOCLDY 70 59 68 E3 30.35S Manning MOCLDY 70 45 40 MISG 30.34S Columbia MOCLDY 72 60 66 E7 30.32R Sumter FAIR 66 57 72 NE5 30.33R Florence CLOUDY 63 56 78 E5 30.37R Myrtle Beach CLOUDY 63 62 97 CALM 30.38R N Myrtle Beach CLOUDY 63 62 97 CALM 30.37R FOG $$ GAZ063-065-086>088-099>101-113>116-118-119-134>141-150-200000- ...Southeast Georgia... CITY SKY/WX TMP DP RH WIND PRES REMARKS Savannah Arpt FAIR 74 64 71 S12 30.32R Hunter AAF FAIR 73 65 75 E7 30.30R Fort Stewart FAIR 74 64 69 SE8 30.29R Statesboro FAIR 77 58 51 S7 30.30S Sylvania FAIR 76 64 67 S6 30.31R Claxton FAIR 77 64 65 CALM 30.30R ...CSRA, Central and far Southeast Georgia... CITY SKY/WX TMP DP RH WIND PRES REMARKS Thomson FAIR 67 60 77 E5 30.36R Augusta-Bush FAIR 73 61 65 E5 30.29R Augusta-Daniel FAIR 74 61 63 E3 30.31R Swainsboro FAIR 77 61 57 S5 30.29S Vidalia FAIR 75 63 64 SE3 30.29R Eastman FAIR 78 46 32 S7 30.30R Hazlehurst FAIR 78 53 42 S3 30.27R Alma MOCLDY 78 62 57 SE9 30.27R Waycross FAIR 78 60 54 SE7 30.28R Jesup FAIR 75 61 60 SE8 30.30R Baxley FAIR 73 61 64 CALM 30.28R Brunswick FAIR 72 63 73 E6 30.32S Saint Simons FAIR 66 63 90 E6 30.31S $$ SCZ027-028-034-036>038-045-046-048>050-GAZ119-141-200000- ...Lake and Supplemental Coastal Observations... STATION/POSITION TIME TEMP WIND PRES WAVE SWELL AIR SEA DIR/SP/G HT/PER HT/PER/DIR (UTC) (F) (DEG/KT/KT) (MB) (FT/S) (FT/S/D) Winyah Bay 2145 64 100/ 2 1028.0 Lake Murray 2220 72 CALM 1025.7 ACE Basin NERRS 2145 74 130/ 2 1027.0 Fort Pulaski 2242 62 61 90/ 9/ 9 1027.5R Sapelo Island 2200 72 100/ 6 1026.0 $$ ANZ835-935-AMZ111-154-330-350-352-354-370-450-454-472-200000- ...C-MAN and Buoy Observations... STATION/POSITION TIME TEMP WIND PRES WAVE SWELL AIR SEA DIR/SP/G HT/PER HT/PER/DIR (UTC) (F) (DEG/KT/KT) (MB) (FT/S) (FT/S/D) Buoy 41004 2250 71 68 110/ 4/ 6 1027.6R 4/ 9 3/100/ 9 Buoy 41008 2250 64 59 90/ 8/ 8 1026.6R 3/ 8 3/ 80/ 8 Folly Beach CMAN 2200 62 70/ 7/ 7 1028.0F Capers Nearshore 2208 58 59 70/ 8/ 10 1027.2F Fripp Nearshore 2208 63 60 90/ 6/ 8 1026.1F STATION/POSITION TIME TEMP WIND PRES WAVE SWELL AIR SEA DIR/SP/G HT/PER HT/PER/DIR (UTC) (F) (DEG/KT/KT) (MB) (FT/S) (FT/S/D) 5E St. Marys GA 2300 61 N/A 3/ 7 Frying Pan Buoy 2250 70 67 140/ 10/ 10 1028.7R 4/ 6 3/ 90/ 6 Buoy 41025 2250 70 71 160/ 17/ 19 1030.4R 5/ 8 3/ 50/ 8 Cape Lookout NC 2200 170/ 8/ 8 1029.4R Buoy 41002 2250 71 73 100/ 14/ 16 1029.8R 4/ 9 3/ 40/ 9 Buoy 41010 NOT AVBL St Augustine FL 2300 65 62 50/ 4/ 5 1026.2R $$ ASUS42 KCHS 192327 RWRCHS Regional Weather Roundup National Weather Service Charleston SC 600 PM EST MON FEB 19 2018 NOTE: "fair" indicates few or no clouds below 12,000 feet with no significant weather and/or obstructions to visibility. Not all stations are quality controlled. Use data with caution, especially dewpoint observations. SCZ027-030-031-034>040-042>050-200000- ...Southeast South Carolina... CITY SKY/WX TMP DP RH WIND PRES REMARKS N Charleston FAIR 72 65 78 SE8 30.34R Waterfront Prk NOT AVBL Mount Pleasant FAIR 66 64 94 E5 30.36R Johns Island CLOUDY 66 64 94 CALM 30.35R Pinopolis N/A 68 63 83 VRB2 30.25R Moncks Corner FAIR 72 63 73 S5 30.34R Summerville FAIR 73 63 68 CALM 30.35R Beaufort MCAS FAIR 74 67 78 S5 30.33R Beaufort Arpt FAIR 68 64 88 SE3 30.34R Hilton Head Is CLEAR 66 63 88 NE6 30.35R Walterboro FAIR 72 63 73 SE3 30.34R Allendale FAIR 73 63 68 CALM 30.31R ...Southern Midlands and Pee Dee... CITY SKY/WX TMP DP RH WIND PRES REMARKS Georgetown MOCLDY 63 61 94 SE3 30.37S Kingstree MOCLDY 64 61 88 CALM 30.36R Orangeburg MOCLDY 71 60 68 E5 30.33R Barnwell N/A 72 64 78 CALM 30.32R Aiken FAIR 68 61 77 E3 30.36R Manning MOCLDY 68 45 42 MISG 30.35R Columbia MOCLDY 72 60 66 E7 30.32R Sumter FAIR 66 57 72 NE5 30.33R Florence CLOUDY 63 56 78 E5 30.37R Myrtle Beach CLOUDY 63 62 97 CALM 30.38R N Myrtle Beach CLOUDY 63 62 97 CALM 30.37R FOG $$ GAZ063-065-086>088-099>101-113>116-118-119-134>141-150-200000- ...Southeast Georgia... CITY SKY/WX TMP DP RH WIND PRES REMARKS Savannah Arpt FAIR 74 64 71 S12 30.32R Hunter AAF FAIR 73 65 75 E7 30.30R Fort Stewart FAIR 74 64 69 SE8 30.29R Statesboro FAIR 75 58 54 SE8 30.31R Sylvania FAIR 74 64 70 S3 30.32R Claxton FAIR 75 64 67 E5 30.30R ...CSRA, Central and far Southeast Georgia... CITY SKY/WX TMP DP RH WIND PRES REMARKS Thomson FAIR 66 60 79 E5 30.36R Augusta-Bush FAIR 73 61 65 E5 30.29R Augusta-Daniel FAIR 74 61 63 E3 30.31R Swainsboro FAIR 73 61 64 CALM 30.30R Vidalia FAIR 73 63 68 SE3 30.29S Eastman FAIR 76 47 35 S5 30.30R Hazlehurst FAIR 78 55 44 SE5 30.28R Alma MOCLDY 78 62 57 SE9 30.27R Waycross FAIR 76 60 57 SE8 30.28R Jesup FAIR 75 61 60 SE8 30.31R Baxley MOCLDY 73 61 64 SE5 30.29R Brunswick FAIR 70 63 78 E7 30.33R Saint Simons FAIR 66 63 90 E6 30.31S $$ SCZ027-028-034-036>038-045-046-048>050-GAZ119-141-200000- ...Lake and Supplemental Coastal Observations... STATION/POSITION TIME TEMP WIND PRES WAVE SWELL AIR SEA DIR/SP/G HT/PER HT/PER/DIR (UTC) (F) (DEG/KT/KT) (MB) (FT/S) (FT/S/D) Winyah Bay 2245 61 80/ 3 1028.0S Lake Murray 2320 68 CALM / 1 1026.4R ACE Basin NERRS 2245 72 130/ 2 1027.0S Fort Pulaski 2300 62 60 90/ 7/ 7 1027.5 Sapelo Island 2300 68 90/ 5 1027.0 $$ ANZ835-935-AMZ111-154-330-350-352-354-370-450-454-472-200000- ...C-MAN and Buoy Observations... STATION/POSITION TIME TEMP WIND PRES WAVE SWELL AIR SEA DIR/SP/G HT/PER HT/PER/DIR (UTC) (F) (DEG/KT/KT) (MB) (FT/S) (FT/S/D) Buoy 41004 2310 70 68 120/ 4/ 6 1027.7 Buoy 41008 2250 64 59 90/ 8/ 8 1026.6R 3/ 8 3/ 80/ 8 Folly Beach CMAN 2300 60 70/ 6/ 7 1028.4R Capers Nearshore 2308 55 58 80/ 8/ 10 1027.6R Fripp Nearshore 2308 59 59 90/ 6/ 8 1026.4R STATION/POSITION TIME TEMP WIND PRES WAVE SWELL AIR SEA DIR/SP/G HT/PER HT/PER/DIR (UTC) (F) (DEG/KT/KT) (MB) (FT/S) (FT/S/D) 5E St. Marys GA 2300 61 N/A 3/ 7 Frying Pan Buoy 2310 70 67 130/ 10/ 10 1028.8 Buoy 41025 2310 71 71 160/ 16/ 19 1030.6 Cape Lookout NC 2300 180/ 7/ 8 1029.8R Buoy 41002 2250 71 73 100/ 14/ 16 1029.8R 4/ 9 3/ 40/ 9 Buoy 41010 NOT AVBL St Augustine FL 2300 65 62 50/ 4/ 5 1026.2R $$